Location: Bletchingley
(51.2333°N, 0.1000°W)
Time: 12:10:23
(UTC+00:00)

ATLAS 2AS CENTAUR R/B - Pass Details

Date: 18 September 2020
Orbit: 939 x 1273 km, 63.7° (Epoch: 19 October)

Event Time Altitude Azimuth Distance (km) Brightness Sun altitude
Rises 19:14:38 0° 154° (SSE) 4,196 5.4 -11.3°
Enters shadow 19:16:57 - 144° (SE) 3,643 5.0 -11.6°
Exits shadow 19:24:45 13° 87° (E) 3,011 4.5 -12.8°
Drops below altitude 10° 19:26:44 10° 73° (ENE) 3,263 4.8 -13.1°
Sets 19:31:02 0° 51° (NE) 4,209 5.5 -13.7°
